Terminal Aerodrome Forecast
Issued by NWS

Home | Current Version | Previous Version | Text Only | Print | Product List | Glossary On
Versions: 1 2 3 4 5 6 7 8 9 10 11 12 13 14 15 16 17 18
000
FTUS42 KFFC 301341 AAA
TAFPDK
TAF AMD
KPDK 301341Z 3014/0112 24008KT P6SM BKN040
     FM301600 24012G18KT P6SM VCSH BKN050
      TEMPO 3017/3021 VRB15G25KT 4SM TSRA BKN035CB
     FM010000 27008KT P6SM BKN060
     FM010600 26006KT P6SM SCT015 SCT060=

USA.gov is the U.S. government's official web portal to all federal, state and local government web resources and services.